Torna al catalogo

STARLINK-11082

AttivoComunicazioniVLEO
NORAD 59711·PAYLOAD·🇺🇸 United States

Lanciato May 10, 2024 da Vandenberg Space Force Base

Loading…

Prossimi Passaggi (prossime 24 ore)

TLE

AggiornatoSource: CelesTrak SupGP

Epoca: Sep 15, 2026, 02:36 UTC

1 59711C 24088D   26258.10881944  .00080884  00000+0  66627-3 0  2588
2 59711  53.1564 112.6974 0000816  85.7483 145.3534 15.69669341    15

Traccia STARLINK-11082 in tempo reale con AllMySat

Download on the App Store